Simultaneous Nadir Overpasses (SNOs) Predictions

Prediction of SNOs between METOP-B and NOAA-19 Satellite Orbit:

Table of predicted SNOs for the next 14.0 days since TLE Epoch: 6/6/2014
Index Date (METOP-B) Time (METOP-B) Lat,Lon (METOP-B) SZA (METOP-B ) Date (NOAA-19) Time (NOAA-19) Lat,Lon (NOAA-19) SZA (NOAA-19 ) Distance(km) Time Diff (sec)
1 06/13/2014 20:07:33 -74.40, 53.99 128.88 06/13/2014 20:06:23 -74.44, 52.01 128.77 59.04 70
2 06/13/2014 20:58:21 74.03,-139.62 50.78 06/13/2014 20:57:21 74.01,-139.62 50.76 2.70 60
3 06/13/2014 21:49:02 -73.99, 27.61 129.27 06/13/2014 21:48:16 -73.98, 27.71 129.27 3.37 46
4 06/13/2014 22:39:43 73.96,-165.13 50.71 06/13/2014 22:39:23 73.98,-165.06 50.73 2.97 20
5 06/13/2014 23:30:24 -73.97, 2.21 129.29 06/13/2014 23:30:19 -73.95, 2.27 129.31 2.53 5
6
